SPACEBEE-155 (52416 NORAD) Tracking and Keplerian Element Data

This shows tracking and keplerian element data for the satellite.

Feedback or suggestion? Click here.




ElementValue
Catalog52416
NameSPACEBEE-155
Epoch Orbit812
Epoch Day166.96327957
Epoch Year2022
RAAN251.8777
Inclination97.4498
Eccentricity0.0010716
Argument of Perigee178.1221
Mean Anonmoly182.0052
Mean Motion15.13197164
Decay Rate9.125E-05
L11 52416U 22047Y 22166.96327957 .00009125 00000+0 51672-3 0 9998
L22 52416 97.4498 251.8777 0010716 178.1221 182.0052 15.13197164 8122

Live tracking and technical data element details for SPACEBEE-155 (NORAD 52416). SPACEBEE-155 can be tracked NOW for your location showing map with azimuth and elevation plus other details from your city location.

Track the satellite on the map from your city or location and see movement details for azimuth, elevation, latitude, longitude, range, height, and movement on the map or in text.







IsCatalogInMostPopularTable: catalog: 52416, numindb: 1
Update: records affected: 1



GetName: 52416 SPACEBEE-155

Hit Count: updated at: Mon, 27 Jun 2022 06:16:14 GMT